Ardabil, Iran

11:08 AM IRDT on August 26, 2016 (GMT +0430)
Ardabil

Weather History for OITL - April, 2013

Change the Weather History Date:

Wednesday, April 17, 2013

  Actual Average Record
Temperature  
Mean Temperature 38 °F -  
Max Temperature 41 °F - - ()
Min Temperature 35 °F - - ()
Degree Days  
Heating Degree Days 27    
Moisture  
Dew Point 37 °F    
Average Humidity 97    
Maximum Humidity 100    
Minimum Humidity 87    
Precipitation  
Precipitation 0.00 in - - ()
Sea Level Pressure  
Sea Level Pressure 29.90 in    
Wind  
Wind Speed 18 mph ()    
Max Wind Speed 36 mph    
Max Gust Speed -    
Visibility 4.0 miles    
Events Fog , Rain    
T = Trace of Precipitation, MM = Missing Value Source: Averaged Metar Reports

Daily Weather History Graph

Daily Weather History Graph

Search for Another Location

Airport or City:

Trip Planner

Search our weather history database for the weather conditions in past years. The results will help you decide how hot, cold, wet, or windy it might be!

Date:

Astronomy

Apr. 17, 2013 Rise Set
Actual Time 6:37 AM IRDT 7:54 PM IRDT
Civil Twilight 6:10 AM IRDT 8:21 PM IRDT
Nautical Twilight 5:37 AM IRDT 8:54 PM IRDT
Astronomical Twilight 5:03 AM IRDT 9:29 PM IRDT
Moon 11:32 AM IRDT (4/17) 1:15 AM IRDT (4/17)
Length of Visible Light 14h 11m
Length of Day
13h 16m
Waxing Crescent, 39% of the Moon is Illuminated
Apr 17
Waxing Crescent
Apr 18
First Quarter
Apr 26
Full
May 2
Last Quarter
May 10
New

Hourly Weather History & Observations

Time (IRDT) Temp. Windchill Dew Point Humidity Pressure Visibility Wind Dir Wind Speed Gust Speed Precip Events Conditions
7:20 AM 35.6 °F 25.9 °F 33.8 °F 93% 29.92 in 5.0 mi NE 16.1 mph - N/A Fog , Rain Light Rain Showers
7:30 AM - - - N/A% - 5.0 mi NE 16.1 mph - N/A Fog , Rain Light Rain Showers
8:20 AM 35.6 °F 25.2 °F 35.6 °F 100% 29.89 in 5.0 mi ENE 18.4 mph - N/A Fog , Rain Light Rain
8:30 AM 35.6 °F 25.2 °F 35.6 °F 100% 29.89 in 5.0 mi ENE 18.4 mph - N/A Fog , Rain Light Rain
9:20 AM 35.6 °F 24.5 °F 35.6 °F 100% 29.89 in 1.9 mi ENE 20.7 mph - N/A Fog Patches of Fog
9:30 AM 35.6 °F 24.5 °F 35.6 °F 100% 29.89 in 1.9 mi ENE 20.7 mph - N/A Fog Patches of Fog
10:00 AM 37.4 °F 26.9 °F 37.4 °F 100% 29.89 in 6.2 mi ENE 20.7 mph - N/A Fog Scattered Clouds
10:20 AM 37.4 °F 26.6 °F 37.4 °F 100% 29.89 in 6.2 mi ENE 21.9 mph - N/A Fog Scattered Clouds
10:30 AM 37.4 °F 26.6 °F 37.4 °F 100% 29.89 in 6.2 mi ENE 21.9 mph - N/A Fog Scattered Clouds
11:00 AM 39.2 °F 29.0 °F 37.4 °F 93% 29.89 in 6.2 mi ENE 21.9 mph - N/A Fog Scattered Clouds
11:20 AM 39.2 °F 29.3 °F 37.4 °F 93% 29.89 in 6.2 mi ENE 20.7 mph - N/A Fog Scattered Clouds
11:30 AM 39.2 °F 29.3 °F 37.4 °F 93% 29.89 in 6.2 mi ENE 20.7 mph - N/A Fog Scattered Clouds
12:00 PM 39.2 °F 29.3 °F 39.2 °F 100% 29.89 in 5.0 mi ENE 20.7 mph - N/A Fog Patches of Fog
12:20 PM 41.0 °F 30.0 °F 39.2 °F 93% 29.89 in 6.2 mi ENE 28.8 mph - N/A Fog Scattered Clouds
12:30 PM 41.0 °F 30.0 °F 39.2 °F 93% 29.89 in 6.2 mi ENE 28.8 mph - N/A Fog Scattered Clouds
1:00 PM 39.2 °F 28.0 °F 37.4 °F 93% 29.89 in 6.2 mi ENE 26.5 mph - N/A Fog Scattered Clouds
1:20 PM 41.0 °F 31.4 °F 37.4 °F 87% 29.89 in 6.2 mi NE 21.9 mph - N/A Fog Scattered Clouds
1:30 PM 41.0 °F 31.4 °F 37.4 °F 87% 29.89 in 6.2 mi NE 21.9 mph - N/A Fog Scattered Clouds
2:20 PM 39.2 °F 30.5 °F 37.4 °F 93% 29.89 in 3.1 mi NE 16.1 mph - N/A Fog , Rain Light Rain Showers
2:30 PM 39.2 °F 30.5 °F 37.4 °F 93% 29.89 in 3.1 mi NE 16.1 mph - N/A Fog , Rain Light Rain Showers
3:00 PM 39.2 °F 29.8 °F 37.4 °F 93% 29.89 in 6.2 mi ENE 18.4 mph - N/A Fog Scattered Clouds
3:20 PM 39.2 °F 30.5 °F 37.4 °F 93% 29.89 in 5.0 mi NE 16.1 mph - N/A Fog Scattered Clouds
3:30 PM 39.2 °F 30.5 °F 37.4 °F 93% 29.89 in 5.0 mi NE 16.1 mph - N/A Fog Scattered Clouds
4:00 PM 39.2 °F 29.8 °F 39.2 °F 100% 29.86 in 5.0 mi ENE 18.4 mph - N/A Fog Patches of Fog
4:20 PM 39.2 °F 26.5 °F 37.4 °F 93% 29.86 in 4.3 mi ENE 35.7 mph - N/A Fog , Rain Light Rain Showers
4:30 PM 39.2 °F 29.8 °F 37.4 °F 93% 29.86 in 4.3 mi ENE 18.4 mph - N/A Fog , Rain Light Rain Showers
5:00 PM 37.4 °F 26.9 °F 37.4 °F 100% 29.89 in 3.1 mi ENE 20.7 mph - N/A Fog Patches of Fog
5:20 PM 35.6 °F 25.2 °F 35.6 °F 100% 29.89 in 3.1 mi NE 18.4 mph - N/A   Scattered Clouds
5:30 PM 35.6 °F 25.2 °F 35.6 °F 100% 29.89 in 3.1 mi NE 18.4 mph - N/A   Scattered Clouds
6:00 PM 37.4 °F 27.5 °F 35.6 °F 93% 29.89 in 5.0 mi NE 18.4 mph - N/A   Scattered Clouds
6:20 PM 35.6 °F 23.7 °F 35.6 °F 100% 29.89 in 0.2 mi ENE 24.2 mph - N/A Fog Light Drizzle
6:30 PM 35.6 °F 23.7 °F 35.6 °F 100% 29.89 in 0.2 mi ENE 24.2 mph - N/A Fog Light Drizzle
7:00 PM 35.6 °F 24.2 °F 35.6 °F 100% 29.89 in 3.7 mi ENE 21.9 mph - N/A   Light Drizzle
7:20 PM 35.6 °F 24.5 °F 35.6 °F 100% 29.92 in 5.0 mi ENE 20.7 mph - N/A   Partly Cloudy
7:30 PM 35.6 °F 24.5 °F 35.6 °F 100% 29.92 in 5.0 mi ENE 20.7 mph - N/A   Partly Cloudy
8:00 PM 35.6 °F 26.6 °F 35.6 °F 100% 29.89 in 0.2 mi ENE 13.8 mph - N/A Fog Fog
8:20 PM 35.6 °F 26.6 °F 35.6 °F 100% 29.92 in 2.5 mi ENE 13.8 mph - N/A Fog Patches of Fog
8:30 PM 35.6 °F 26.6 °F 35.6 °F 100% 29.92 in 2.5 mi ENE 13.8 mph - N/A Fog Patches of Fog
9:00 PM 35.6 °F 25.9 °F 35.6 °F 100% 29.92 in 0.1 mi ENE 16.1 mph - N/A Fog Fog
9:20 PM 35.6 °F 25.9 °F 35.6 °F 100% 29.92 in 0.0 mi ENE 16.1 mph - N/A Fog Fog
9:30 PM 35.6 °F 25.9 °F 35.6 °F 100% 29.92 in 0.0 mi ENE 16.1 mph - N/A Fog Fog
10:00 PM 35.6 °F 25.9 °F 35.6 °F 100% 29.95 in 0.1 mi ENE 16.1 mph - N/A Fog Fog